TimeEST,TemperatureF,Dew PointF,Humidity,Sea Level PressureIn,VisibilityMPH,Wind Direction,Wind SpeedMPH,Gust SpeedMPH,PrecipitationIn,Events,Conditions,WindDirDegrees,DateUTC
12:53 AM,28.9,19.9,69,29.97,10.0,WNW,5.8,-,N/A,,Overcast,300,2014-01-16 05:53:00
1:53 AM,28.9,19.0,67,29.97,10.0,WSW,3.5,-,N/A,,Overcast,240,2014-01-16 06:53:00
2:53 AM,28.0,19.9,72,29.99,10.0,SSW,3.5,-,N/A,,Overcast,200,2014-01-16 07:53:00
3:53 AM,28.0,19.0,69,29.97,10.0,WSW,3.5,-,N/A,,Overcast,250,2014-01-16 08:53:00
4:53 AM,28.0,21.0,75,29.99,10.0,Calm,Calm,-,N/A,,Overcast,0,2014-01-16 09:53:00
5:53 AM,28.0,21.0,75,29.99,10.0,Calm,Calm,-,N/A,,Overcast,0,2014-01-16 10:53:00
6:53 AM,27.0,21.0,78,29.97,10.0,Calm,Calm,-,N/A,,Overcast,0,2014-01-16 11:53:00
7:53 AM,28.0,21.0,75,29.97,10.0,Calm,Calm,-,N/A,,Overcast,0,2014-01-16 12:53:00
8:53 AM,28.0,21.0,75,29.99,10.0,West,3.5,-,N/A,,Overcast,270,2014-01-16 13:53:00
9:53 AM,28.9,19.9,69,30.01,10.0,WNW,6.9,-,N/A,,Overcast,290,2014-01-16 14:53:00
10:53 AM,30.0,19.9,66,30.00,10.0,SW,4.6,-,N/A,,Overcast,230,2014-01-16 15:53:00
11:53 AM,30.0,19.9,66,29.97,10.0,NW,5.8,-,N/A,,Mostly Cloudy,310,2014-01-16 16:53:00
12:53 PM,30.9,16.0,54,29.94,10.0,SSW,5.8,-,N/A,,Scattered Clouds,200,2014-01-16 17:53:00
1:53 PM,32.0,16.0,52,29.91,10.0,Calm,Calm,-,N/A,,Mostly Cloudy,0,2014-01-16 18:53:00
2:53 PM,32.0,17.1,54,29.93,10.0,Calm,Calm,-,N/A,,Overcast,0,2014-01-16 19:53:00
3:53 PM,30.9,17.1,57,29.90,10.0,SSW,3.5,-,N/A,,Clear,200,2014-01-16 20:53:00
4:53 PM,30.0,16.0,56,29.90,10.0,Calm,Calm,-,N/A,,Clear,0,2014-01-16 21:53:00
5:53 PM,27.0,18.0,69,29.91,10.0,East,3.5,-,N/A,,Clear,100,2014-01-16 22:53:00
6:53 PM,26.1,18.0,71,29.93,10.0,ENE,3.5,-,N/A,,Clear,70,2014-01-16 23:53:00
7:53 PM,25.0,17.1,72,29.92,10.0,Calm,Calm,-,N/A,,Clear,0,2014-01-17 00:53:00
8:53 PM,21.9,17.1,82,29.94,10.0,Calm,Calm,-,N/A,,Clear,0,2014-01-17 01:53:00
9:53 PM,23.0,18.0,81,29.94,10.0,ESE,3.5,-,N/A,,Clear,110,2014-01-17 02:53:00
10:53 PM,23.0,18.0,81,29.93,10.0,East,4.6,-,N/A,,Clear,100,2014-01-17 03:53:00
11:53 PM,23.0,18.0,81,29.91,10.0,ESE,5.8,-,N/A,,Partly Cloudy,110,2014-01-17 04:53:00